User: anonymous   Login
Location: USNO
(38.9242°N, 77.0663°W)
Time: 10:21:07
(UTC-04:00)
Language:

Envisat - Orbit

View from above orbital plane
View from above orbital plane
View from above satellite
View from above satellite

Ground track
Ground track

The orbit data is extracted from the following two-line orbital elements,

1 27386U 02009A   17293.15440969 -.00000010  00000-0  10480-4 0  9996
2 27386  98.2183 333.1261 0001259  87.2757 272.8590 14.37905727819030
Epoch (UTC): 20 October 2017 03:42:20
Eccentricity: 0.0001259
inclination: 98.2183°
perigee height: 764 km
apogee height: 766 km
right ascension of ascending node: 333.1261°
argument of perigee: 87.2757°
revolutions per day: 14.37905727
mean anomaly at epoch: 272.8590°
orbit number at epoch: 81903

The dashed part of the orbit path shows where the satellite is in the earth's shadow,  

DLR